[[{"header":{"parameterUnit":"m.s-1","parameterCategory":1,"la1":30.2991,"la2":30.254,"lo1":-89.0895,"lo2":-89.0444,"dy":0.0017,"dx":0.0017,"nx":28,"ny":28,"refTime":"2024-04-03T03:00:00:Z","depth":0,"parameterNumber":2,"parameterNumberName":"U-component_of_WINDS"},"data":[0,0,0,0,0,0,0,0,0,0,0,0,0,0,0,0,0,0,0,0,0,0,0,0,0,0,0,0,0,0,0,0,0,0,0,0,0,0,0,0,0,0,0,0,0,0,0,0,0,0,0,0,0,0,0,0,0,0,3.9634,3.9634,0,3.9676,3.9676,3.9677,3.9666,3.9665,3.9665,3.9664,3.9707,3.9709,3.971,0,0,0,0,0,0,0,0,0,0,0,0,0,3.9546,3.9547,3.9634,3.9634,3.9635,3.9676,3.9676,3.9677,3.9666,3.9665,3.9664,3.9663,3.9706,3.9708,3.9711,0,0,0,0,0,0,0,0,0,0,0,0,0,3.9586,3.9548,3.9634,3.9634,3.9635,3.9676,3.9676,3.9677,3.9667,3.9665,3.9664,3.9663,3.9705,3.9708,3.9711,3.9753,0,0,3.972,3.9721,0,0,0,0,0,0,0,0,3.9583,3.9589,3.9634,3.9634,3.9635,3.9665,3.9661,3.9703,3.9667,3.9655,3.9664,3.9662,3.9694,3.9697,3.9708,3.9755,3.9757,3.972,3.9722,3.9723,3.9724,0,0,0,0,0,0,0,3.9581,3.9587,3.965,3.9634,3.9635,3.9633,3.9638,3.9669,3.9681,3.9656,3.9655,3.966,3.9694,3.9705,3.9709,3.9758,3.972,3.9722,3.9724,3.9725,3.9845,3.9846,0,0,0,0,0,0,3.9577,3.9585,3.9649,3.9652,3.9606,3.9636,3.9641,3.9656,3.968,3.9683,3.9661,3.9659,3.9701,3.9706,3.971,3.9763,3.9723,3.9726,3.9727,3.9844,3.9845,3.9847,0,0,0,0,0,0,3.9575,3.9583,3.9647,3.9618,3.9626,3.9639,3.9656,3.9658,3.9669,3.9684,3.9686,3.9671,3.97,3.9706,3.9743,3.9765,3.9727,3.9729,3.9842,3.9844,3.9846,3.9868,0,0,0,0,0,0,3.9573,3.9582,3.9598,3.9618,3.9628,3.9679,3.9658,3.966,3.9674,3.9673,3.9694,3.9696,3.97,3.9739,3.9746,3.9768,3.9732,3.984,3.9843,3.9845,3.9866,3.9871,3.9876,0,0,0,0,0,3.957,3.9602,3.9599,3.9607,3.9647,3.968,3.9686,3.9689,3.9676,3.9692,3.9703,3.9695,3.9761,3.9743,3.9751,3.9774,3.9839,3.9842,3.9845,3.9864,3.987,3.9876,0,0,0,0,0,0,3.9582,3.9604,3.9601,3.9641,3.9659,3.9678,3.9699,3.9695,3.9717,3.9715,3.9718,3.9723,3.9761,3.9771,3.9751,3.9818,3.9798,3.9803,3.981,3.9816,3.9821,3.9817,3.9734,0,0,0,0,0,3.959,3.9615,3.9633,3.9666,3.9675,3.9686,3.97,3.9702,3.972,3.9728,3.974,3.9759,3.9784,3.98,3.9824,3.9868,3.9873,3.9887,3.9892,3.9896,3.9901,3.9927,3.9934,3.9858,3.9858,3.9858,0,0,3.9606,3.9621,3.9636,3.9669,3.9683,3.9709,3.9692,3.972,3.974,3.9732,3.9768,3.9778,3.98,3.9841,3.9859,3.985,3.9923,3.99,3.9903,3.9906,3.9931,3.9938,3.9944,3.986,3.986,3.9859,0,0,3.9648,3.9661,3.9691,3.9706,3.9729,3.9736,3.9743,3.9764,3.9771,3.9807,3.9803,3.9827,3.9869,3.9886,3.9899,3.9951,3.9946,3.9959,3.9984,4.0009,4.0015,4.0021,4.0041,4.0048,3.9963,3.9963,3.9963,0,3.9664,3.9703,3.9707,3.9736,3.9752,3.9747,3.9779,3.9793,3.9822,3.9833,3.9823,3.9878,3.9892,3.9938,3.9951,3.9961,3.9971,3.9956,4.0014,4.002,4.0025,4.0044,4.0051,3.9965,3.9964,3.9964,3.9964,0,3.9723,3.9751,3.9773,3.9802,3.982,3.985,3.986,3.9878,3.9878,3.9887,3.9926,3.9943,3.9971,3.9982,3.9982,4.0029,4.0023,4.0013,3.9994,4.0033,4.0051,4.0059,3.9967,3.9966,3.9966,3.9965,0,0,3.9773,3.9806,3.9814,3.9828,3.9853,3.9875,3.9906,3.9934,3.9951,3.9971,3.9998,4.0036,4.0028,4.0044,4.0046,4.0069,4.0111,4.0057,4.0057,4.0067,4.0165,4.0173,4.0181,4.0108,4.0109,4.0111,4.0164,0,3.9818,3.9872,3.9878,3.9927,3.9954,3.9951,3.9979,3.9998,4.0008,4.0032,4.0043,4.007,4.0057,4.0067,4.0089,4.0101,4.0131,4.0097,4.0134,4.0135,4.0129,4.019,4.0197,4.0247,4.0171,4.0172,4.0173,0,3.9877,3.9901,3.9953,3.9977,3.9989,4.0013,4.0041,4.0064,4.0087,4.0092,4.0112,4.0112,4.0145,4.0125,4.0172,4.0149,4.0165,4.0174,4.0176,4.018,4.0157,4.0196,4.0262,4.027,4.0184,4.0183,4.0182,0,3.991,3.9955,3.9992,4.0004,4.0033,4.0051,4.0064,4.0085,4.0103,4.0127,4.0139,4.0167,4.0183,4.0205,4.0214,4.0198,4.0261,4.0241,4.0267,4.0267,4.028,4.0279,4.0351,4.029,4.029,4.029,4.0289,0,3.996,3.9992,4.0008,4.0031,4.0068,4.0075,4.0111,4.0123,4.0143,4.0169,4.0169,4.0194,4.0203,4.023,4.0237,4.0276,4.0283,4.0289,4.0291,4.0289,4.0289,4.03,4.0297,4.0292,4.0291,4.0291,4.029,0,4.0002,4.0014,4.0055,4.008,4.0087,4.0113,4.0135,4.0158,4.0168,4.0201,4.021,4.0226,4.0258,4.0269,4.0307,4.0312,4.0358,4.0356,4.035,4.0351,4.0377,4.0375,4.0458,4.047,4.0401,4.0401,4.0402,0,4.0033,4.0058,4.0087,4.0105,4.0118,4.0147,4.0165,4.0174,4.0194,4.0223,4.0243,4.0275,4.0301,4.0352,4.0368,4.0398,4.0397,4.0424,4.0401,4.04,4.0399,4.0398,4.0401,4.0429,4.0429,4.043,4.043,0,4.0088,4.0094,4.012,4.015,4.0172,4.0196,4.0218,4.0233,4.0246,4.0268,4.0301,4.0321,4.0362,4.0394,4.0425,4.0439,4.0438,4.0438,4.0446,4.0445,4.0441,4.0445,4.0363,4.0435,4.0435,4.0435,4.0434,4.0434,4.0127,4.015,4.0174,4.0205,4.0223,4.0245,4.0269,4.0283,4.0311,4.0344,4.0348,4.0384,4.0409,4.045,4.0466,4.0495,4.0488,4.0499,4.0502,4.0505,4.0507,4.0436,4.0501,4.0501,4.0501,4.05,4.05,0,4.0183,4.0199,4.0227,4.026,4.0284,4.0281,4.0307,4.0328,4.036,4.0383,4.0409,4.0448,4.048,4.0499,4.0531,4.0551,4.0551,4.0559,4.0558,4.0562,4.0511,4.0502,4.0559,4.0559,4.0559,4.0559,4.0559,4.0559,4.0215,4.0254,4.0263,4.0312,4.0328,4.0364,4.0379,4.04,4.0419,4.0463,4.0489,4.0502,4.0524,4.0559,4.0588,4.0593,4.0606,4.0614,4.0619,4.0571,4.0565,4.0559,4.055,4.0617,4.0617,4.0667,4.0668,4.0668]},{"header":{"parameterUnit":"m.s-1","parameterCategory":1,"la1":30.2991,"la2":30.254,"lo1":-89.0895,"lo2":-89.0444,"dy":0.0017,"dx":0.0017,"nx":28,"ny":28,"refTime":"2024-04-03T03:00:00:Z","depth":0,"parameterNumber":3,"parameterNumberName":"V-component_of_WINDS"},"data":[0,0,0,0,0,0,0,0,0,0,0,0,0,0,0,0,0,0,0,0,0,0,0,0,0,0,0,0,0,0,0,0,0,0,0,0,0,0,0,0,0,0,0,0,0,0,0,0,0,0,0,0,0,0,0,0,0,0,-4.1494,-4.1494,0,-4.154,-4.1541,-4.1541,-4.1553,-4.1553,-4.1553,-4.1553,-4.1598,-4.1599,-4.16,0,0,0,0,0,0,0,0,0,0,0,0,0,-4.1416,-4.1417,-4.1494,-4.1494,-4.1495,-4.154,-4.1541,-4.1541,-4.1554,-4.1553,-4.1553,-4.1553,-4.1597,-4.1599,-4.1601,0,0,0,0,0,0,0,0,0,0,0,0,0,-4.1455,-4.1418,-4.1494,-4.1507,-4.1508,-4.154,-4.1541,-4.1541,-4.1554,-4.1553,-4.1553,-4.1552,-4.1597,-4.1599,-4.1601,-4.1622,0,0,-4.1607,-4.1608,0,0,0,0,0,0,0,0,-4.1452,-4.1457,-4.1504,-4.1506,-4.1508,-4.1541,-4.153,-4.1568,-4.1554,-4.1536,-4.1553,-4.1552,-4.1579,-4.1582,-4.1592,-4.1624,-4.1626,-4.1608,-4.1609,-4.161,-4.161,0,0,0,0,0,0,0,-4.145,-4.1455,-4.1512,-4.1505,-4.1507,-4.151,-4.1515,-4.1537,-4.1559,-4.1538,-4.1539,-4.1544,-4.158,-4.159,-4.1593,-4.1627,-4.1608,-4.1609,-4.1611,-4.1612,-4.1682,-4.1683,0,0,0,0,0,0,-4.1445,-4.1453,-4.1511,-4.1513,-4.1479,-4.1512,-4.1517,-4.153,-4.1559,-4.1563,-4.1545,-4.1545,-4.1586,-4.159,-4.1595,-4.1623,-4.161,-4.1612,-4.1613,-4.1682,-4.1682,-4.1683,0,0,0,0,0,0,-4.1443,-4.145,-4.1509,-4.1484,-4.1491,-4.1514,-4.1528,-4.1532,-4.1542,-4.1564,-4.1568,-4.1551,-4.1586,-4.1592,-4.1616,-4.1625,-4.1613,-4.1615,-4.1681,-4.1682,-4.1683,-4.168,0,0,0,0,0,0,-4.1441,-4.1449,-4.1457,-4.1484,-4.1493,-4.1529,-4.1529,-4.1533,-4.1546,-4.1546,-4.1571,-4.1575,-4.1586,-4.1613,-4.1618,-4.1628,-4.1616,-4.168,-4.1681,-4.1682,-4.1679,-4.168,-4.1682,0,0,0,0,0,-4.1438,-4.1453,-4.1458,-4.1465,-4.1503,-4.153,-4.1535,-4.1548,-4.1546,-4.1555,-4.157,-4.1574,-4.1623,-4.1615,-4.1621,-4.1632,-4.168,-4.1681,-4.1682,-4.1679,-4.168,-4.1682,0,0,0,0,0,0,-4.1426,-4.1457,-4.1462,-4.1486,-4.1506,-4.1532,-4.1543,-4.1549,-4.1568,-4.1568,-4.1584,-4.1589,-4.1613,-4.1625,-4.1615,-4.1656,-4.1652,-4.1654,-4.1647,-4.1648,-4.165,-4.1646,-4.1618,0,0,0,0,0,-4.1426,-4.1445,-4.1472,-4.1491,-4.15,-4.152,-4.1532,-4.1541,-4.1561,-4.1569,-4.1585,-4.1604,-4.1625,-4.1637,-4.1657,-4.1681,-4.1688,-4.1692,-4.1693,-4.1694,-4.1696,-4.1712,-4.1715,-4.1687,-4.1687,-4.1687,0,0,-4.1426,-4.1446,-4.1457,-4.1489,-4.1505,-4.1525,-4.1526,-4.1546,-4.1562,-4.1572,-4.1597,-4.161,-4.1632,-4.1657,-4.1669,-4.1668,-4.1705,-4.1695,-4.1696,-4.1697,-4.1714,-4.1716,-4.1718,-4.1688,-4.1688,-4.1688,0,0,-4.1438,-4.1454,-4.1473,-4.149,-4.1514,-4.1528,-4.1533,-4.1559,-4.1568,-4.1594,-4.1603,-4.1621,-4.1654,-4.1671,-4.1683,-4.1705,-4.171,-4.171,-4.1716,-4.1732,-4.1734,-4.1736,-4.1745,-4.1748,-4.1712,-4.1712,-4.1712,0,-4.1434,-4.1465,-4.1481,-4.1502,-4.1517,-4.1529,-4.1549,-4.1564,-4.1593,-4.1603,-4.1601,-4.1646,-4.1662,-4.1692,-4.1698,-4.1707,-4.1714,-4.1707,-4.1733,-4.1735,-4.1737,-4.1746,-4.1749,-4.1712,-4.1712,-4.1712,-4.1712,0,-4.1461,-4.1482,-4.1495,-4.1525,-4.1541,-4.1561,-4.1581,-4.1595,-4.1604,-4.1618,-4.1645,-4.1665,-4.1689,-4.1697,-4.1705,-4.173,-4.1729,-4.173,-4.1726,-4.1739,-4.1748,-4.1751,-4.1712,-4.1712,-4.1712,-4.1712,0,0,-4.1463,-4.1505,-4.1509,-4.1524,-4.1554,-4.1571,-4.1592,-4.1618,-4.1631,-4.1652,-4.167,-4.1701,-4.1703,-4.1717,-4.1727,-4.1741,-4.1759,-4.1741,-4.1742,-4.1744,-4.1789,-4.1788,-4.1792,-4.1763,-4.1763,-4.1764,-4.1788,0,-4.1478,-4.1518,-4.1535,-4.1567,-4.1587,-4.1601,-4.162,-4.1641,-4.1655,-4.1675,-4.1691,-4.1713,-4.1713,-4.1723,-4.1737,-4.1753,-4.1768,-4.1752,-4.1781,-4.1782,-4.1775,-4.1796,-4.1794,-4.1815,-4.1791,-4.1791,-4.1792,0,-4.1501,-4.1524,-4.1558,-4.1589,-4.1598,-4.1615,-4.1642,-4.166,-4.1685,-4.1695,-4.1713,-4.1723,-4.1747,-4.1743,-4.1776,-4.1765,-4.1778,-4.1789,-4.179,-4.1793,-4.1787,-4.18,-4.1822,-4.1826,-4.1797,-4.1796,-4.1796,0,-4.15,-4.154,-4.1566,-4.1579,-4.1614,-4.1626,-4.1641,-4.1666,-4.1681,-4.1705,-4.1715,-4.174,-4.1754,-4.1774,-4.1791,-4.1786,-4.1824,-4.182,-4.1833,-4.1832,-4.1839,-4.1839,-4.1865,-4.1847,-4.1847,-4.1847,-4.1847,0,-4.1515,-4.1536,-4.1567,-4.1583,-4.1608,-4.1627,-4.1651,-4.1667,-4.1689,-4.1709,-4.1722,-4.1741,-4.1762,-4.1784,-4.1798,-4.1825,-4.183,-4.1839,-4.1843,-4.1838,-4.1837,-4.1847,-4.1846,-4.1848,-4.1848,-4.1848,-4.1848,0,-4.1518,-4.1539,-4.157,-4.1602,-4.1611,-4.1628,-4.1655,-4.1672,-4.1689,-4.1714,-4.1721,-4.1746,-4.1773,-4.1793,-4.1826,-4.1835,-4.1864,-4.1867,-4.1856,-4.1858,-4.187,-4.1869,-4.1903,-4.1909,-4.1887,-4.1887,-4.1887,0,-4.1526,-4.1543,-4.1578,-4.1594,-4.1609,-4.1633,-4.165,-4.1671,-4.1688,-4.1719,-4.1732,-4.176,-4.1783,-4.1825,-4.1846,-4.1872,-4.1877,-4.1887,-4.188,-4.1876,-4.1878,-4.1877,-4.1879,-4.1887,-4.1888,-4.1888,-4.1888,0,-4.1539,-4.155,-4.1574,-4.1603,-4.1623,-4.1646,-4.1669,-4.1681,-4.1706,-4.1725,-4.1753,-4.1771,-4.1807,-4.1835,-4.1864,-4.188,-4.1888,-4.189,-4.1895,-4.189,-4.1883,-4.1888,-4.1859,-4.1889,-4.1889,-4.1889,-4.1889,-4.1889,-4.1545,-4.1562,-4.159,-4.1617,-4.1638,-4.166,-4.1679,-4.1699,-4.1723,-4.1754,-4.1765,-4.1795,-4.1822,-4.1862,-4.1878,-4.1902,-4.1902,-4.1908,-4.1909,-4.1911,-4.1911,-4.188,-4.1907,-4.1907,-4.1907,-4.1907,-4.1907,0,-4.1559,-4.1579,-4.1604,-4.1638,-4.166,-4.1668,-4.1695,-4.1713,-4.1739,-4.1764,-4.1788,-4.1821,-4.1849,-4.1874,-4.1903,-4.1917,-4.1922,-4.1924,-4.1923,-4.1927,-4.1909,-4.1903,-4.192,-4.192,-4.192,-4.192,-4.192,-4.192,-4.1569,-4.1599,-4.1613,-4.1653,-4.1673,-4.1703,-4.1718,-4.1739,-4.176,-4.1797,-4.1821,-4.1838,-4.1863,-4.1895,-4.1921,-4.1928,-4.1938,-4.1939,-4.1947,-4.1929,-4.1928,-4.1926,-4.1921,-4.1941,-4.1941,-4.1963,-4.1963,-4.1963]}]]